• In Uzbekistan
  • List of Countries
  • For 7 days
  • Water Temperature
  • Satellite Maps
  • Weather Map
  • Weather Widgets
  • user-avatar
    Login

    Hourly Weather Dillenburg

    Today, 15 October, Monday

    Time Temperature Precipitation Wind Pressure Humidity
    00:00 +15°C° 0 mm 1 mps 732 mmHg 86%
    01:00 +15°C° 0 mm 1 mps 732 mmHg 83%
    02:00 +15°C° 0 mm 1 mps 733 mmHg 82%
    03:00 +15°C° 0 mm 1 mps 733 mmHg 81%
    04:00 +15°C° 0 mm 1 mps 733 mmHg 79%
    05:00 +15°C° 0 mm 1 mps 733 mmHg 81%
    06:00 +14°C° 0 mm 1 mps 733 mmHg 82%
    07:00 +14°C° 0 mm 1 mps 734 mmHg 83%
    08:00 +16°C° 0 mm 1 mps 734 mmHg 76%
    09:00 +19°C° 0 mm 1 mps 734 mmHg 69%
    10:00 +20°C° 0 mm 1 mps 734 mmHg 62%
    11:00 +22°C° 0 mm 1 mps 735 mmHg 58%
    12:00 +23°C° 0 mm 1 mps 735 mmHg 53%
    13:00 +24°C° 0 mm 1 mps 735 mmHg 49%
    14:00 +24°C° 0 mm 1 mps 735 mmHg 51%
    15:00 +24°C° 0 mm 1 mps 735 mmHg 54%
    16:00 +22°C° 0 mm 0 mps 735 mmHg 56%
    17:00 +19°C° 0 mm 0 mps 735 mmHg 62%
    18:00 +17°C° 0 mm 0 mps 735 mmHg 68%
    19:00 +15°C° 0 mm 0 mps 735 mmHg 74%
    20:00 +15°C° 0 mm 0 mps 735 mmHg 76%
    21:00 +14°C° 0 mm 0 mps 735 mmHg 77%
    22:00 +14°C° 0 mm 0 mps 735 mmHg 79%
    23:00 +13°C° 0 mm 0 mps 736 mmHg 80%

    Tomorrow, 16 October, Tuesday

    Time Temperature Precipitation Wind Pressure Humidity
    00:00 +13°C° 0 mm 0 mps 736 mmHg 80%
    01:00 +13°C° 0 mm 0 mps 736 mmHg 81%
    02:00 +13°C° 0 mm 0 mps 736 mmHg 81%
    03:00 +12°C° 0 mm 0 mps 736 mmHg 82%
    04:00 +12°C° 0 mm 0 mps 736 mmHg 82%
    05:00 +12°C° 0 mm 0 mps 736 mmHg 83%
    06:00 +12°C° 0 mm 0 mps 737 mmHg 84%
    07:00 +12°C° 0 mm 0 mps 737 mmHg 84%
    08:00 +14°C° 0 mm 0 mps 737 mmHg 78%
    09:00 +18°C° 0 mm 1 mps 738 mmHg 73%
    10:00 +20°C° 0 mm 1 mps 738 mmHg 67%
    11:00 +20°C° 0.1 mm 1 mps 738 mmHg 65%
    12:00 +21°C° 0.1 mm 1 mps 738 mmHg 63%
    13:00 +22°C° 0.1 mm 1 mps 738 mmHg 62%
    14:00 +22°C° 0.1 mm 1 mps 738 mmHg 64%
    15:00 +21°C° 0.1 mm 1 mps 738 mmHg 66%
    16:00 +21°C° 0.1 mm 1 mps 738 mmHg 69%
    17:00 +19°C° 0 mm 1 mps 738 mmHg 75%
    18:00 +16°C° 0 mm 1 mps 738 mmHg 81%
    19:00 +14°C° 0 mm 0 mps 738 mmHg 87%
    20:00 +13°C° 0 mm 0 mps 738 mmHg 88%
    21:00 +13°C° 0 mm 0 mps 738 mmHg 89%
    22:00 +13°C° 0 mm 0 mps 738 mmHg 90%
    23:00 +12°C° 0 mm 0 mps 738 mmHg 90%

    Day after tomorrow, 17 October, Wednesday

    Time Temperature Precipitation Wind Pressure Humidity
    00:00 +12°C° 0 mm 0 mps 738 mmHg 90%
    01:00 +12°C° 0 mm 0 mps 738 mmHg 90%
    02:00 +12°C° 0 mm 0 mps 738 mmHg 90%
    03:00 +12°C° 0 mm 0 mps 738 mmHg 90%
    04:00 +12°C° 0 mm 0 mps 737 mmHg 90%
    05:00 +11°C° 0 mm 0 mps 737 mmHg 90%
    06:00 +11°C° 0 mm 0 mps 737 mmHg 90%
    07:00 +11°C° 0 mm 0 mps 737 mmHg 91%
    08:00 +13°C° 0 mm 0 mps 738 mmHg 84%
    09:00 +15°C° 0 mm 0 mps 738 mmHg 77%
    10:00 +17°C° 0 mm 0 mps 738 mmHg 71%
    11:00 +18°C° 0 mm 0 mps 738 mmHg 66%
    12:00 +19°C° 0 mm 0 mps 738 mmHg 62%
    13:00 +21°C° 0 mm 0 mps 738 mmHg 57%
    14:00 +20°C° 0 mm 0 mps 737 mmHg 60%
    15:00 +22°C° 0 mm 1 mps 737 mmHg 63%
    16:00 +21°C° 0 mm 1 mps 737 mmHg 65%
    17:00 +20°C° 0 mm 1 mps 737 mmHg 72%
    18:00 +18°C° 0 mm 1 mps 737 mmHg 79%
    19:00 +15°C° 0 mm 1 mps 737 mmHg 87%
    20:00 +15°C° 0 mm 1 mps 737 mmHg 89%
    21:00 +14°C° 0 mm 1 mps 738 mmHg 91%
    22:00 +14°C° 0 mm 1 mps 738 mmHg 93%
    23:00 +14°C° 0 mm 1 mps 738 mmHg 93%

    18 October, Thursday

    Time Temperature Precipitation Wind Pressure Humidity
    00:00 +14°C° 0 mm 1 mps 738 mmHg 93%
    01:00 +13°C° 0 mm 1 mps 738 mmHg 94%
    02:00 +13°C° 0 mm 1 mps 738 mmHg 94%
    03:00 +13°C° 0 mm 1 mps 738 mmHg 94%
    04:00 +13°C° 0 mm 1 mps 738 mmHg 94%
    05:00 +12°C° 0 mm 1 mps 738 mmHg 94%
    06:00 +12°C° 0 mm 1 mps 738 mmHg 94%
    07:00 +12°C° 0 mm 1 mps 738 mmHg 95%
    08:00 +14°C° 0 mm 1 mps 739 mmHg 89%
    09:00 +15°C° 0 mm 2 mps 739 mmHg 84%
    10:00 +17°C° 0 mm 2 mps 739 mmHg 78%
    11:00 +18°C° 0 mm 2 mps 739 mmHg 74%
    12:00 +19°C° 0 mm 2 mps 739 mmHg 69%
    13:00 +20°C° 0 mm 2 mps 739 mmHg 64%
    14:00 +20°C° 0 mm 3 mps 739 mmHg 66%
    15:00 +20°C° 0 mm 3 mps 739 mmHg 68%
    16:00 +19°C° 0 mm 3 mps 739 mmHg 70%
    17:00 +18°C° 0 mm 3 mps 739 mmHg 77%
    18:00 +16°C° 0 mm 2 mps 739 mmHg 84%
    19:00 +15°C° 0 mm 2 mps 739 mmHg 91%
    20:00 +14°C° 0 mm 2 mps 740 mmHg 92%
    21:00 +14°C° 0 mm 2 mps 740 mmHg 93%
    22:00 +14°C° 0 mm 2 mps 740 mmHg 94%
    23:00 +13°C° 0 mm 2 mps 740 mmHg 95%

    19 October, Friday

    Time Temperature Precipitation Wind Pressure Humidity
    00:00 +13°C° 0 mm 2 mps 740 mmHg 95%
    01:00 +12°C° 0 mm 1 mps 741 mmHg 96%
    02:00 +12°C° 0 mm 1 mps 740 mmHg 96%
    03:00 +12°C° 0 mm 1 mps 740 mmHg 96%
    04:00 +12°C° 0 mm 1 mps 740 mmHg 97%
    05:00 +12°C° 0 mm 1 mps 740 mmHg 97%
    06:00 +12°C° 0 mm 1 mps 741 mmHg 96%
    07:00 +12°C° 0 mm 2 mps 741 mmHg 96%
    08:00 +13°C° 0 mm 2 mps 741 mmHg 92%
    09:00 +14°C° 0 mm 2 mps 741 mmHg 87%
    10:00 +15°C° 0 mm 2 mps 742 mmHg 83%
    11:00 +16°C° 0 mm 2 mps 742 mmHg 78%
    12:00 +17°C° 0 mm 2 mps 742 mmHg 73%
    13:00 +18°C° 0 mm 2 mps 742 mmHg 68%
    14:00 +18°C° 0 mm 2 mps 741 mmHg 69%
    15:00 +17°C° 0 mm 2 mps 741 mmHg 71%
    16:00 +17°C° 0 mm 2 mps 741 mmHg 73%
    17:00 +16°C° 0 mm 2 mps 741 mmHg 78%
    18:00 +15°C° 0 mm 2 mps 742 mmHg 82%
    19:00 +14°C° 0 mm 2 mps 742 mmHg 87%
    20:00 +13°C° 0 mm 2 mps 742 mmHg 89%
    21:00 +12°C° 0 mm 1 mps 742 mmHg 91%
    22:00 +11°C° 0 mm 1 mps 743 mmHg 93%
    23:00 +11°C° 0 mm 1 mps 743 mmHg 93%

    20 October, Saturday

    Time Temperature Precipitation Wind Pressure Humidity
    00:00 +10°C° 0 mm 1 mps 743 mmHg 92%
    01:00 +10°C° 0 mm 1 mps 743 mmHg 92%
    02:00 +9°C° 0 mm 1 mps 743 mmHg 91%
    03:00 +9°C° 0 mm 1 mps 743 mmHg 91%
    04:00 +9°C° 0 mm 1 mps 743 mmHg 90%
    05:00 +8°C° 0 mm 1 mps 744 mmHg 90%
    06:00 +8°C° 0 mm 1 mps 744 mmHg 89%
    07:00 +7°C° 0 mm 1 mps 744 mmHg 89%
    08:00 +9°C° 0 mm 1 mps 744 mmHg 80%
    09:00 +11°C° 0 mm 1 mps 745 mmHg 71%
    10:00 +12°C° 0 mm 1 mps 745 mmHg 63%
    11:00 +13°C° 0 mm 1 mps 745 mmHg 57%
    12:00 +15°C° 0 mm 1 mps 745 mmHg 51%
    13:00 +16°C° 0 mm 1 mps 745 mmHg 45%
    14:00 +15°C° 0 mm 1 mps 745 mmHg 48%
    15:00 +15°C° 0 mm 1 mps 745 mmHg 50%
    16:00 +15°C° 0 mm 1 mps 745 mmHg 52%
    17:00 +13°C° 0 mm 1 mps 745 mmHg 58%
    18:00 +11°C° 0 mm 1 mps 745 mmHg 64%
    19:00 +9°C° 0 mm 1 mps 745 mmHg 70%
    20:00 +8°C° 0 mm 1 mps 745 mmHg 72%
    21:00 +8°C° 0 mm 1 mps 746 mmHg 73%
    22:00 +7°C° 0 mm 1 mps 746 mmHg 75%
    23:00 +7°C° 0 mm 1 mps 746 mmHg 75%
    Show more